DateTimeUTC,F1_A11,F1_S11,BsB_S11,BsG_S11,BsR_S11,BbsB_S11,BbsG_S11,BbsR_S11,BaB_A11,BaG_A11,BaR_A11,Tu_S11,T_S11,Uu_S11,U_S11,P_S11,T1_A11
2021-03-17T15:00:00Z,00040200,20000000,,,,,,,0000.06,-000.10,-000.14,17.3,24.5,01.6,01.0,0652.4,30.9
2021-03-17T15:01:00Z,00040200,20000000,,,,,,,0000.08,-000.10,-000.36,17.3,24.5,01.6,01.0,0652.4,30.9
2021-03-17T15:02:00Z,00040200,20000000,,,,,,,0000.24,0000.02,0000.17,17.3,24.5,01.6,01.0,0652.4,30.9
2021-03-17T15:03:00Z,00040200,60000000,,,,,,,-000.70,-000.37,0000.06,17.3,24.5,01.6,01.0,0652.4,30.9
2021-03-17T15:04:00Z,00040200,41000000,0000.30,0000.06,0000.09,0000.23,-000.05,0000.18,0000.10,-000.18,0000.05,17.4,24.3,01.6,01.0,0653.2,30.9
2021-03-17T15:05:00Z,00040200,01000000,0000.05,0000.17,-000.02,-000.01,0000.17,0000.03,-000.17,-000.10,-000.18,17.4,24.3,01.6,01.0,0653.4,30.9
2021-03-17T15:06:00Z,00040200,01000000,-000.08,0000.09,0000.14,0000.17,-000.15,0000.05,-000.53,-000.04,0000.00,17.4,24.3,01.6,01.0,0653.4,30.9
2021-03-17T15:07:00Z,00040200,01000000,0000.30,-000.07,0000.16,0000.42,-000.14,0000.26,0000.31,0000.07,0000.16,17.4,24.3,01.4,00.9,0653.4,30.9
2021-03-17T15:08:00Z,00040200,01000000,0000.06,0000.11,-000.04,-000.19,0000.26,0000.30,0000.11,-000.24,-000.32,17.4,24.2,01.6,01.0,0653.4,30.9
2021-03-17T15:09:00Z,00040200,01000000,0000.27,0000.26,0000.16,0000.22,0000.08,0000.26,0000.30,0000.44,0000.33,17.4,24.2,01.5,01.0,0653.4,30.9
2021-03-17T15:10:00Z,00040200,01000000,0000.25,0000.16,0000.32,0000.17,-000.07,0000.25,0000.15,0000.22,0000.44,17.5,24.2,01.4,01.0,0653.4,30.9
2021-03-17T15:11:00Z,00040200,01000000,0000.00,0000.05,0000.17,-000.16,-000.05,-000.05,0000.42,0000.21,-000.25,17.6,24.2,01.6,01.1,0653.4,31.0
2021-03-17T15:12:00Z,00040200,01000000,-000.02,-000.03,0000.13,0000.22,-000.15,-000.05,-000.08,-000.41,0000.08,17.7,24.3,01.7,01.1,0653.4,31.0
2021-03-17T15:13:00Z,00040200,01000000,0000.54,0000.17,0000.19,0000.36,-000.14,0000.33,0000.10,0000.75,0000.29,17.8,24.3,01.5,01.0,0653.4,31.0
2021-03-17T15:14:00Z,00040200,01000000,0000.64,0000.05,0000.13,-000.00,0000.28,0000.08,-000.21,0000.04,0000.05,17.8,24.4,01.5,01.0,0653.4,31.0
2021-03-17T15:15:00Z,00040200,01000000,0000.15,0000.19,0000.38,-000.51,0000.31,0000.10,-000.05,-000.21,0000.01,17.9,24.4,01.5,01.0,0653.5,31.0
2021-03-17T15:16:00Z,00040200,01000000,0000.53,0000.02,-000.10,0000.53,-000.03,0000.14,-000.02,-000.25,-000.33,18.0,24.4,01.4,01.0,0653.5,31.0
2021-03-17T15:17:00Z,00040200,01000000,0000.23,0000.15,0000.20,-000.19,-000.03,0000.11,-000.10,-000.07,0000.22,17.9,24.5,01.4,01.0,0653.5,31.0
2021-03-17T15:18:00Z,00040200,01000000,0000.34,0000.03,0000.26,0000.05,0000.19,0000.09,0000.17,0000.50,0000.02,17.9,24.5,01.4,00.9,0653.5,31.0
2021-03-17T15:19:00Z,00040200,01000000,0000.07,-000.02,0000.40,0000.19,-000.06,0000.34,0000.19,-000.18,0000.22,17.9,24.5,01.4,00.9,0653.6,31.0
2021-03-17T15:20:00Z,00040200,01000000,0000.22,0000.13,0000.29,0000.36,-000.06,0000.21,0000.17,0000.53,0000.29,17.9,24.5,01.4,00.9,0653.6,31.0
2021-03-17T15:21:00Z,00040200,01000000,0000.10,0000.31,0000.15,0000.26,0000.11,0000.14,0000.08,-000.06,-000.15,17.9,24.5,01.5,01.0,0653.6,31.0
2021-03-17T15:22:00Z,00040200,01000000,0000.30,0000.00,0000.11,0000.11,0000.01,-000.00,0000.26,0000.19,0000.17,17.9,24.5,01.5,01.0,0653.6,31.0
2021-03-17T15:23:00Z,00040200,01000000,0000.81,0000.21,-000.15,0000.16,-000.15,0000.09,0000.35,-000.03,0000.09,17.9,24.5,01.6,01.0,0653.6,31.0
2021-03-17T15:24:00Z,00040200,01000000,0000.12,0000.22,0000.15,-000.06,0000.01,0000.06,0000.01,0000.56,0000.41,17.9,24.5,01.6,01.1,0653.5,31.0
2021-03-17T15:25:00Z,00040200,01000000,0000.43,0000.13,-000.02,0000.26,0000.09,0000.06,0000.34,-000.12,-000.03,17.8,24.5,01.7,01.1,0653.5,31.0
2021-03-17T15:26:00Z,00040200,01000000,0000.14,-000.04,0000.12,-000.53,0000.06,0000.23,-000.09,0000.21,0000.42,17.8,24.5,01.7,01.1,0653.6,31.0
2021-03-17T15:27:00Z,00040200,01000000,-000.49,-000.00,0000.06,-000.19,-000.01,-000.01,0000.27,0000.16,-000.06,17.8,24.5,01.8,01.2,0653.6,30.9
2021-03-17T15:28:00Z,00040200,01000000,0000.10,0000.00,0000.03,0000.45,0000.11,-000.28,0000.44,0000.34,-000.01,17.8,24.4,01.7,01.1,0653.6,30.9
2021-03-17T15:29:00Z,00040200,01000000,0000.07,0000.18,0000.25,-000.09,-000.11,0000.27,0000.38,0000.15,0000.25,17.8,24.4,01.8,01.2,0653.6,30.9
2021-03-17T15:30:00Z,00040200,01000000,0000.14,0000.24,0000.05,0000.18,0000.09,-000.06,-000.25,-000.12,0000.05,17.8,24.4,01.7,01.2,0653.6,30.9
2021-03-17T15:31:00Z,00040200,00000000,0000.11,-000.06,0000.13,-000.17,0000.22,0000.07,-000.15,-000.03,-000.09,17.8,24.4,01.8,01.2,0653.5,30.9
2021-03-17T15:32:00Z,00040200,01000000,0000.37,0000.05,0000.23,0000.07,0000.01,0000.05,0000.08,0000.13,0000.08,17.8,24.4,01.8,01.2,0653.5,30.9
2021-03-17T15:33:00Z,00040200,01000000,0001.02,0000.17,-000.19,-000.13,0000.23,0000.08,0000.35,0000.39,0000.32,17.8,24.4,01.8,01.2,0653.5,31.0
2021-03-17T15:34:00Z,00040200,01000000,0000.47,0000.09,0000.07,-000.24,0000.14,-000.09,0000.45,0000.16,0000.04,17.8,24.4,01.8,01.2,0653.5,30.9
2021-03-17T15:35:00Z,00040200,01000000,-000.00,-000.02,0000.05,-000.13,0000.05,-000.14,0000.05,0000.47,0000.05,17.8,24.4,01.9,01.3,0653.5,30.9
2021-03-17T15:36:00Z,00040200,00000000,-000.35,0000.19,0000.12,-000.08,0000.18,0000.40,0000.04,-000.18,0000.28,17.7,24.4,01.9,01.2,0653.5,30.9
2021-03-17T15:37:00Z,00040200,01000000,0000.54,0000.28,0000.36,-000.07,0000.04,0000.35,-000.17,-000.12,-000.20,17.8,24.4,01.9,01.2,0653.5,30.9
2021-03-17T15:38:00Z,00040200,01000000,0000.78,0000.07,0000.25,0000.08,0000.12,0000.38,-000.08,-000.11,-000.08,17.8,24.4,01.8,01.2,0653.6,31.0
2021-03-17T15:39:00Z,00040200,01000000,-000.04,0000.06,0000.12,0000.13,0000.12,0000.22,0000.09,0000.29,0000.19,17.7,24.4,01.8,01.2,0653.5,31.0
2021-03-17T15:40:00Z,00040200,01000000,-000.26,0000.18,-000.00,0000.18,0000.17,0000.20,0000.30,0000.11,0000.03,17.8,24.4,01.8,01.2,0653.5,31.0
2021-03-17T15:41:00Z,00040200,00000000,-000.02,0000.15,0000.30,-000.17,0000.02,0000.26,0000.13,0000.06,0000.42,17.7,24.4,02.0,01.3,0653.5,30.9
2021-03-17T15:42:00Z,00040200,01000000,0000.02,0000.28,0000.15,0000.24,0000.21,0000.09,0000.05,-000.08,0000.10,17.7,24.4,02.0,01.3,0653.5,30.9
2021-03-17T15:43:00Z,00040200,00000000,0000.27,0000.18,0000.27,0000.06,0000.04,0000.16,0000.20,0000.49,-000.01,17.7,24.4,01.9,01.3,0653.6,30.9
2021-03-17T15:44:00Z,00040200,00000000,-000.09,0000.08,0000.17,-000.30,-000.11,-000.13,-000.03,0000.09,0000.18,17.7,24.4,02.0,01.4,0653.5,31.0
2021-03-17T15:45:00Z,00040200,01000000,0000.32,0000.25,0000.20,0000.03,0000.04,0000.04,0000.55,0000.23,0000.13,17.7,24.4,02.0,01.3,0653.5,30.9
2021-03-17T15:46:00Z,00040200,00000000,0000.63,0000.07,0000.10,0000.13,0000.00,0000.13,0000.09,0000.24,0000.00,17.7,24.4,02.0,01.3,0653.5,30.9
2021-03-17T15:47:00Z,00040200,00000000,0000.15,0000.22,-000.13,0000.09,0000.10,-000.05,0000.38,0000.05,0000.17,17.7,24.4,02.2,01.4,0653.5,30.9
2021-03-17T15:48:00Z,00040200,00000000,-000.26,0000.12,0000.15,-000.19,0000.06,0000.11,0000.23,0000.32,0000.33,17.7,24.4,02.1,01.4,0653.5,30.9
2021-03-17T15:49:00Z,00040200,00000000,0000.42,0000.08,-000.07,0000.12,0000.01,-000.05,-000.13,0000.06,-000.09,17.7,24.4,02.1,01.4,0653.5,31.0
2021-03-17T15:50:00Z,00040200,00000000,0000.06,0000.17,0000.18,-000.03,-000.03,0000.02,-000.23,-000.47,-000.23,17.7,24.4,02.2,01.4,0653.5,31.0
2021-03-17T15:51:00Z,00040200,00000000,-000.02,0000.17,0000.36,0000.00,0000.10,0000.05,0000.07,0000.29,0000.48,17.7,24.4,02.1,01.4,0653.5,30.9
2021-03-17T15:52:00Z,00040200,00000000,0000.17,0000.22,-000.01,-000.04,0000.03,0000.36,-000.11,-000.19,-000.58,17.7,24.4,02.1,01.4,0653.5,30.9
2021-03-17T15:53:00Z,00040200,00000000,0000.33,0000.06,0000.34,0000.08,0000.02,0000.06,-000.18,-000.17,-000.25,17.7,24.4,02.0,01.4,0653.5,31.0
2021-03-17T15:54:00Z,00040200,00000000,0000.27,-000.11,0000.09,0000.02,0000.01,0000.13,-000.23,-000.12,0000.11,17.7,24.4,02.0,01.3,0653.5,31.0
2021-03-17T15:55:00Z,00040200,01000000,0000.50,0000.13,0000.32,-000.22,0000.35,0000.23,0000.31,0000.17,0000.14,17.7,24.4,02.0,01.3,0653.5,31.0
2021-03-17T15:56:00Z,00040200,00000000,0000.08,0000.31,0000.01,0000.29,-000.01,0000.15,0000.18,0000.18,0000.27,17.7,24.4,02.1,01.4,0653.4,31.0
2021-03-17T15:57:00Z,00040200,40000000,,,,,,,-000.72,-000.46,-000.43,17.8,24.5,02.0,01.3,0653.4,31.0
2021-03-17T15:58:00Z,00040200,60000000,,,,,,,0000.35,0000.31,0000.30,17.5,24.5,01.7,01.1,0652.6,31.0
2021-03-17T15:59:00Z,00040200,20000000,,,,,,,0000.21,0000.27,-000.20,17.5,24.6,01.7,01.1,0652.6,31.0
